| time (UTC) | temp F | wind direction | speed MPH | gust MPH | rain 1hr in | rain 24hr in | rain mn in | humidity % | barometer mb |
| 20260903003202 | 90 | 240 | 0.0 | 4.0 | 0.00 | 0.00 | 0.00 | 50 | 101.0 |
| 20260903002702 | 90 | 181 | 1.0 | 4.0 | 0.00 | 0.00 | 0.00 | 49 | 101.0 |
| 20260903002203 | 91 | 185 | 2.0 | 4.0 | 0.00 | 0.00 | 0.00 | 48 | 101.0 |
| 20260903001702 | 92 | 181 | 4.0 | 6.0 | 0.00 | 0.00 | 0.00 | 47 | 101.0 |
| 20260903001202 | 93 | 186 | 2.0 | 7.0 | 0.00 | 0.00 | 0.00 | 45 | 101.0 |
| 20260903000702 | 93 | 184 | 1.0 | 1.0 | 0.00 | 0.00 | 0.00 | 43 | 101.0 |
| 20260903000204 | 93 | 156 | 1.0 | 5.0 | 0.00 | 0.00 | 0.00 | 44 | 101.0 |
| 20260902235702 | 93 | 192 | 5.0 | 12.0 | 0.00 | 0.00 | 0.00 | 44 | 101.0 |
| 20260902234703 | 94 | 203 | 0.0 | 2.0 | 0.00 | 0.00 | 0.00 | 40 | 101.0 |
| 20260902234202 | 94 | 292 | 0.0 | 3.0 | 0.00 | 0.00 | 0.00 | 40 | 101.0 |
| 20260902233702 | 95 | 316 | 3.0 | 5.0 | 0.00 | 0.00 | 0.00 | 40 | 101.0 |
| 20260902233202 | 94 | 341 | 1.0 | 3.0 | 0.00 | 0.00 | 0.00 | 40 | 101.0 |
| 20260902232202 | 94 | 31 | 0.0 | 4.0 | 0.00 | 0.00 | 0.00 | 41 | 101.0 |
| 20260902231702 | 93 | 130 | 0.0 | 2.0 | 0.00 | 0.00 | 0.00 | 43 | 101.0 |
| 20260902231202 | 93 | 286 | 1.0 | 5.0 | 0.00 | 0.00 | 0.00 | 43 | 101.0 |
| 20260902230702 | 93 | 13 | 3.0 | 7.0 | 0.00 | 0.00 | 0.00 | 42 | 101.0 |
| 20260902230201 | 95 | 6 | 4.0 | 5.0 | 0.00 | 0.00 | 0.00 | 39 | 101.0 |
| 20260902225702 | 96 | 356 | 4.0 | 5.0 | 0.00 | 0.00 | 0.00 | 38 | 101.0 |
| 20260902225202 | 97 | 336 | 6.0 | 9.0 | 0.00 | 0.00 | 0.00 | 36 | 101.0 |
| 20260902224702 | 98 | 321 | 2.0 | 5.0 | 0.00 | 0.00 | 0.00 | 36 | 101.0 |
| 20260902224202 | 97 | 315 | 2.0 | 4.0 | 0.00 | 0.00 | 0.00 | 37 | 101.0 |
| 20260902223702 | 98 | 309 | 3.0 | 6.0 | 0.00 | 0.00 | 0.00 | 37 | 101.0 |
| 20260902223203 | 98 | 280 | 6.0 | 6.0 | 0.00 | 0.00 | 0.00 | 36 | 101.0 |
| 20260902222702 | 97 | 223 | 1.0 | 2.0 | 0.00 | 0.00 | 0.00 | 36 | 101.0 |
| 20260902222202 | 98 | 307 | 0.0 | 2.0 | 0.00 | 0.00 | 0.00 | 36 | 101.0 |
| 20260902221702 | 100 | 321 | 0.0 | 4.0 | 0.00 | 0.00 | 0.00 | 34 | 101.0 |
| 20260902221203 | 98 | 20 | 0.0 | 3.0 | 0.00 | 0.00 | 0.00 | 35 | 101.0 |
| 20260902220702 | 96 | 229 | 2.0 | 2.0 | 0.00 | 0.00 | 0.00 | 36 | 101.0 |
| 20260902220202 | 95 | 316 | 0.0 | 5.0 | 0.00 | 0.00 | 0.00 | 38 | 101.0 |
| 20260902215203 | 96 | 236 | 0.0 | 1.0 | 0.00 | 0.00 | 0.00 | 38 | 101.0 |
| 20260902214703 | 96 | 321 | 0.0 | 1.0 | 0.00 | 0.00 | 0.00 | 38 | 101.0 |
| 20260902214202 | 96 | 230 | 0.0 | 2.0 | 0.00 | 0.00 | 0.00 | 38 | 101.0 |
| 20260902213702 | 96 | 33 | 0.0 | 1.0 | 0.00 | 0.00 | 0.00 | 38 | 101.0 |
| 20260902212702 | 96 | 247 | 0.0 | 2.0 | 0.00 | 0.00 | 0.00 | 38 | 101.0 |
| 20260902212204 | 97 | 246 | 1.0 | 4.0 | 0.00 | 0.00 | 0.00 | 37 | 101.0 |
| 20260902211202 | 98 | 223 | 1.0 | 3.0 | 0.00 | 0.00 | 0.00 | 36 | 101.0 |
| 20260902210702 | 98 | 261 | 2.0 | 3.0 | 0.00 | 0.00 | 0.00 | 37 | 101.0 |
| 20260902205702 | 98 | 211 | 2.0 | 3.0 | 0.00 | 0.00 | 0.00 | 37 | 101.0 |
| 20260902204702 | 97 | 244 | 1.0 | 3.0 | 0.00 | 0.00 | 0.00 | 36 | 101.0 |
| 20260902203702 | 97 | 239 | 2.0 | 5.0 | 0.00 | 0.00 | 0.00 | 36 | 101.0 |
| 20260902203202 | 97 | 244 | 4.0 | 4.0 | 0.00 | 0.00 | 0.00 | 37 | 101.1 |
| 20260902202702 | 97 | 213 | 3.0 | 3.0 | 0.00 | 0.00 | 0.00 | 37 | 101.1 |
| 20260902201202 | 97 | 226 | 2.0 | 3.0 | 0.00 | 0.00 | 0.00 | 37 | 101.1 |
| 20260902200702 | 97 | 195 | 2.0 | 4.0 | 0.00 | 0.00 | 0.00 | 37 | 101.0 |
| 20260902200202 | 97 | 209 | 3.0 | 3.0 | 0.00 | 0.00 | 0.00 | 37 | 101.0 |
| 20260902195202 | 99 | 232 | 3.0 | 3.0 | 0.00 | 0.00 | 0.00 | 35 | 101.0 |
| 20260902194702 | 100 | 216 | 1.0 | 4.0 | 0.00 | 0.00 | 0.00 | 35 | 101.0 |
| 20260902194202 | 99 | 189 | 1.0 | 5.0 | 0.00 | 0.00 | 0.00 | 36 | 101.0 |
| 20260902193702 | 98 | 198 | 2.0 | 6.0 | 0.00 | 0.00 | 0.00 | 37 | 101.0 |
| 20260902193202 | 97 | 178 | 0.0 | 3.0 | 0.00 | 0.00 | 0.00 | 37 | 101.2 |
| 20260902192702 | 95 | 241 | 0.0 | 2.0 | 0.00 | 0.00 | 0.00 | 38 | 101.2 |
| 20260902192202 | 94 | 202 | 2.0 | 4.0 | 0.00 | 0.00 | 0.00 | 40 | 101.2 |
| 20260902191702 | 95 | 297 | 1.0 | 3.0 | 0.00 | 0.00 | 0.00 | 40 | 101.2 |
| 20260902191202 | 96 | 339 | 0.0 | 2.0 | 0.00 | 0.00 | 0.00 | 38 | 101.2 |
| 20260902190202 | 98 | 139 | 0.0 | 3.0 | 0.00 | 0.00 | 0.00 | 37 | 101.1 |
| 20260902185702 | 96 | 339 | 2.0 | 3.0 | 0.00 | 0.00 | 0.00 | 38 | 101.1 |
| 20260902185203 | 96 | 235 | 1.0 | 5.0 | 0.00 | 0.00 | 0.00 | 38 | 101.1 |
| 20260902184702 | 97 | 149 | 1.0 | 2.0 | 0.00 | 0.00 | 0.00 | 38 | 101.1 |
| 20260902183702 | 97 | 253 | 2.0 | 5.0 | 0.00 | 0.00 | 0.00 | 38 | 101.1 |
| 20260902182702 | 94 | 259 | 3.0 | 5.0 | 0.00 | 0.00 | 0.00 | 41 | 101.3 |
| 20260902182202 | 96 | 222 | 3.0 | 5.0 | 0.00 | 0.00 | 0.00 | 39 | 101.3 |
| 20260902181702 | 98 | 180 | 0.0 | 2.0 | 0.00 | 0.00 | 0.00 | 38 | 101.3 |
| 20260902181202 | 97 | 244 | 2.0 | 2.0 | 0.00 | 0.00 | 0.00 | 38 | 101.3 |
| 20260902180703 | 97 | 359 | 0.0 | 6.0 | 0.00 | 0.00 | 0.00 | 38 | 101.3 |
| 20260902180202 | 94 | 172 | 1.0 | 1.0 | 0.00 | 0.00 | 0.00 | 40 | 101.3 |
| 20260902175703 | 94 | 229 | 0.0 | 3.0 | 0.00 | 0.00 | 0.00 | 40 | 101.3 |
| 20260902175202 | 95 | 196 | 4.0 | 6.0 | 0.00 | 0.00 | 0.00 | 40 | 101.3 |
| 20260902173203 | 96 | 290 | 3.0 | 6.0 | 0.00 | 0.00 | 0.00 | 39 | 101.4 |
| 20260902172702 | 94 | 236 | 1.0 | 3.0 | 0.00 | 0.00 | 0.00 | 41 | 101.4 |
| 20260902172203 | 94 | 324 | 6.0 | 6.0 | 0.00 | 0.00 | 0.00 | 41 | 101.4 |
| 20260902171202 | 93 | 277 | 4.0 | 5.0 | 0.00 | 0.00 | 0.00 | 42 | 101.4 |
| 20260902170702 | 94 | 259 | 5.0 | 6.0 | 0.00 | 0.00 | 0.00 | 41 | 101.4 |
| 20260902165702 | 92 | 293 | 3.0 | 6.0 | 0.00 | 0.00 | 0.00 | 43 | 101.4 |
| 20260902164702 | 92 | 257 | 2.0 | 5.0 | 0.00 | 0.00 | 0.00 | 43 | 101.4 |
| 20260902164202 | 92 | 260 | 3.0 | 9.0 | 0.00 | 0.00 | 0.00 | 44 | 101.4 |
| 20260902163702 | 92 | 239 | 3.0 | 8.0 | 0.00 | 0.00 | 0.00 | 44 | 101.4 |
| 20260902163202 | 91 | 232 | 2.0 | 6.0 | 0.00 | 0.00 | 0.00 | 45 | 101.4 |
| 20260902161702 | 91 | 251 | 2.0 | 6.0 | 0.00 | 0.00 | 0.00 | 46 | 101.4 |
| 20260902161202 | 91 | 303 | 1.0 | 5.0 | 0.00 | 0.00 | 0.00 | 46 | 101.4 |
| 20260902160702 | 90 | 277 | 3.0 | 5.0 | 0.00 | 0.00 | 0.00 | 47 | 101.4 |
| 20260902160203 | 90 | 244 | 7.0 | 7.0 | 0.00 | 0.00 | 0.00 | 46 | 101.4 |
| 20260902155701 | 90 | 234 | 3.0 | 5.0 | 0.00 | 0.00 | 0.00 | 47 | 101.4 |
| 20260902155202 | 89 | 252 | 2.0 | 5.0 | 0.00 | 0.00 | 0.00 | 47 | 101.4 |
| 20260902154702 | 89 | 282 | 5.0 | 6.0 | 0.00 | 0.00 | 0.00 | 48 | 101.4 |
| 20260902154202 | 88 | 224 | 2.0 | 2.0 | 0.00 | 0.00 | 0.00 | 49 | 101.4 |
| 20260902153702 | 88 | 286 | 2.0 | 5.0 | 0.00 | 0.00 | 0.00 | 49 | 101.4 |
| 20260902153202 | 89 | 284 | 3.0 | 5.0 | 0.00 | 0.00 | 0.00 | 49 | 101.4 |
| 20260902152702 | 88 | 255 | 2.0 | 5.0 | 0.00 | 0.00 | 0.00 | 49 | 101.4 |
| 20260902152204 | 88 | 257 | 2.0 | 4.0 | 0.00 | 0.00 | 0.00 | 51 | 101.4 |
| 20260902151703 | 87 | 333 | 1.0 | 6.0 | 0.00 | 0.00 | 0.00 | 52 | 101.4 |
| 20260902151202 | 87 | 230 | 2.0 | 5.0 | 0.00 | 0.00 | 0.00 | 54 | 101.4 |
| 20260902150702 | 86 | 225 | 0.0 | 2.0 | 0.00 | 0.00 | 0.00 | 55 | 101.4 |
| 20260902150202 | 85 | 224 | 0.0 | 5.0 | 0.00 | 0.00 | 0.00 | 57 | 101.4 |
| 20260902145702 | 85 | 218 | 4.0 | 6.0 | 0.00 | 0.00 | 0.00 | 58 | 101.4 |
| 20260902145202 | 85 | 9 | 2.0 | 10.0 | 0.00 | 0.00 | 0.00 | 58 | 101.4 |
| 20260902144702 | 85 | 242 | 2.0 | 6.0 | 0.00 | 0.00 | 0.00 | 58 | 101.4 |
| 20260902144202 | 84 | 287 | 5.0 | 6.0 | 0.00 | 0.00 | 0.00 | 60 | 101.4 |
| 20260902143703 | 84 | 235 | 3.0 | 5.0 | 0.00 | 0.00 | 0.00 | 61 | 101.4 |
| 20260902143202 | 84 | 224 | 3.0 | 5.0 | 0.00 | 0.00 | 0.00 | 61 | 101.4 |
| 20260902142202 | 84 | 232 | 3.0 | 5.0 | 0.00 | 0.00 | 0.00 | 62 | 101.4 |
| 20260902141202 | 83 | 275 | 2.0 | 7.0 | 0.00 | 0.00 | 0.00 | 64 | 101.4 |
| 20260902140702 | 82 | 246 | 1.0 | 4.0 | 0.00 | 0.00 | 0.00 | 64 | 101.4 |
| 20260902140202 | 82 | 246 | 2.0 | 5.0 | 0.00 | 0.00 | 0.00 | 65 | 101.4 |
| 20260902135202 | 81 | 180 | 2.0 | 4.0 | 0.00 | 0.00 | 0.00 | 68 | 101.4 |
| 20260902134702 | 81 | 253 | 2.0 | 4.0 | 0.00 | 0.00 | 0.00 | 69 | 101.4 |
| 20260902134202 | 80 | 236 | 4.0 | 4.0 | 0.00 | 0.00 | 0.00 | 70 | 101.4 |
| 20260902133702 | 80 | 251 | 2.0 | 4.0 | 0.00 | 0.00 | 0.00 | 70 | 101.4 |
| 20260902133202 | 80 | 251 | 2.0 | 4.0 | 0.00 | 0.00 | 0.00 | 71 | 101.4 |
| 20260902132202 | 79 | 222 | 1.0 | 4.0 | 0.00 | 0.00 | 0.00 | 72 | 101.4 |
| 20260902131702 | 79 | 250 | 2.0 | 3.0 | 0.00 | 0.00 | 0.00 | 72 | 101.4 |
| 20260902130702 | 78 | 227 | 1.0 | 2.0 | 0.00 | 0.00 | 0.00 | 73 | 101.3 |
| 20260902130202 | 77 | 256 | 0.0 | 2.0 | 0.00 | 0.00 | 0.00 | 75 | 101.3 |
| 20260902125702 | 77 | 239 | 1.0 | 2.0 | 0.00 | 0.00 | 0.00 | 76 | 101.3 |
| 20260902125201 | 76 | 227 | 1.0 | 2.0 | 0.00 | 0.00 | 0.00 | 77 | 101.3 |
| 20260902124702 | 76 | 182 | 2.0 | 2.0 | 0.00 | 0.00 | 0.00 | 77 | 101.3 |
| 20260902124202 | 77 | 176 | 1.0 | 3.0 | 0.00 | 0.00 | 0.00 | 76 | 101.3 |
| 20260902123702 | 77 | 220 | 1.0 | 2.0 | 0.00 | 0.00 | 0.00 | 76 | 101.3 |
| 20260902123202 | 77 | 234 | 0.0 | 2.0 | 0.00 | 0.00 | 0.00 | 75 | 101.4 |
| 20260902122702 | 77 | 264 | 0.0 | 1.0 | 0.00 | 0.00 | 0.00 | 75 | 101.4 |
| 20260902122202 | 77 | 179 | 1.0 | 2.0 | 0.00 | 0.00 | 0.00 | 75 | 101.4 |
| 20260902121702 | 77 | 277 | 0.0 | 1.0 | 0.00 | 0.00 | 0.00 | 74 | 101.3 |
| 20260902121202 | 77 | 299 | 1.0 | 3.0 | 0.00 | 0.00 | 0.00 | 74 | 101.3 |
| 20260902120702 | 77 | 258 | 1.0 | 2.0 | 0.00 | 0.00 | 0.00 | 74 | 101.3 |
| 20260902114702 | 78 | 232 | 2.0 | 2.0 | 0.00 | 0.00 | 0.00 | 74 | 101.3 |
| 20260902114203 | 78 | 111 | 0.0 | 2.0 | 0.00 | 0.00 | 0.00 | 73 | 101.3 |
| 20260902113201 | 78 | 275 | 1.0 | 2.0 | 0.00 | 0.00 | 0.00 | 73 | 101.3 |
| 20260902112702 | 78 | 268 | 2.0 | 2.0 | 0.00 | 0.00 | 0.00 | 73 | 101.3 |
| 20260902112203 | 78 | 283 | 3.0 | 4.0 | 0.00 | 0.00 | 0.00 | 73 | 101.3 |
| 20260902111702 | 78 | 256 | 1.0 | 3.0 | 0.00 | 0.00 | 0.00 | 73 | 101.3 |
| 20260902111202 | 78 | 240 | 2.0 | 3.0 | 0.00 | 0.00 | 0.00 | 74 | 101.3 |
| 20260902110701 | 78 | 243 | 3.0 | 4.0 | 0.00 | 0.00 | 0.00 | 74 | 101.3 |
| 20260902110201 | 78 | 183 | 1.0 | 3.0 | 0.00 | 0.00 | 0.00 | 73 | 101.3 |
| 20260902105702 | 78 | 206 | 3.0 | 3.0 | 0.00 | 0.00 | 0.00 | 73 | 101.3 |
| 20260902105202 | 78 | 295 | 2.0 | 3.0 | 0.00 | 0.00 | 0.00 | 73 | 101.3 |
| 20260902104702 | 78 | 308 | 3.0 | 4.0 | 0.00 | 0.00 | 0.00 | 73 | 101.3 |
| 20260902103702 | 79 | 272 | 2.0 | 3.0 | 0.00 | 0.00 | 0.00 | 73 | 101.3 |
| 20260902103202 | 79 | 221 | 3.0 | 6.0 | 0.00 | 0.00 | 0.00 | 74 | 101.3 |
| 20260902102702 | 79 | 257 | 3.0 | 3.0 | 0.00 | 0.00 | 0.00 | 73 | 101.3 |
| 20260902102202 | 79 | 292 | 2.0 | 2.0 | 0.00 | 0.00 | 0.00 | 73 | 101.3 |
| 20260902101202 | 79 | 235 | 2.0 | 3.0 | 0.00 | 0.00 | 0.00 | 72 | 101.3 |
| 20260902100202 | 79 | 169 | 1.0 | 3.0 | 0.00 | 0.00 | 0.00 | 72 | 101.3 |
| 20260902095702 | 79 | 195 | 2.0 | 3.0 | 0.00 | 0.00 | 0.00 | 73 | 101.3 |
| 20260902095202 | 79 | 240 | 2.0 | 2.0 | 0.00 | 0.00 | 0.00 | 73 | 101.3 |
| 20260902094702 | 79 | 196 | 2.0 | 5.0 | 0.00 | 0.00 | 0.00 | 73 | 101.3 |
| 20260902094202 | 79 | 84 | 1.0 | 2.0 | 0.00 | 0.00 | 0.00 | 74 | 101.3 |
| 20260902093702 | 79 | 268 | 2.0 | 3.0 | 0.00 | 0.00 | 0.00 | 74 | 101.3 |
| 20260902093202 | 79 | 238 | 2.0 | 2.0 | 0.00 | 0.00 | 0.00 | 75 | 101.3 |
| 20260902092702 | 79 | 275 | 2.0 | 3.0 | 0.00 | 0.00 | 0.00 | 76 | 101.3 |
| 20260902092202 | 79 | 222 | 3.0 | 4.0 | 0.00 | 0.00 | 0.00 | 76 | 101.3 |
| 20260902091703 | 79 | 210 | 2.0 | 2.0 | 0.00 | 0.00 | 0.00 | 76 | 101.3 |
| 20260902091202 | 78 | 228 | 2.0 | 3.0 | 0.00 | 0.00 | 0.00 | 77 | 101.3 |
| 20260902090203 | 78 | 250 | 1.0 | 3.0 | 0.00 | 0.00 | 0.00 | 77 | 101.3 |
| 20260902085702 | 77 | 215 | 2.0 | 4.0 | 0.00 | 0.00 | 0.00 | 77 | 101.3 |
| 20260902084701 | 77 | 319 | 4.0 | 4.0 | 0.00 | 0.00 | 0.00 | 78 | 101.3 |
| 20260902084202 | 77 | 193 | 1.0 | 3.0 | 0.00 | 0.00 | 0.00 | 78 | 101.3 |
| 20260902083202 | 78 | 83 | 0.0 | 4.0 | 0.00 | 0.00 | 0.00 | 76 | 101.4 |
| 20260902082702 | 78 | 190 | 1.0 | 3.0 | 0.00 | 0.00 | 0.00 | 76 | 101.4 |
| 20260902082202 | 78 | 213 | 1.0 | 1.0 | 0.00 | 0.00 | 0.00 | 75 | 101.4 |
| 20260902081702 | 78 | 182 | 0.0 | 3.0 | 0.00 | 0.00 | 0.00 | 74 | 101.4 |
| 20260902081203 | 78 | 123 | 0.0 | 3.0 | 0.00 | 0.00 | 0.00 | 74 | 101.4 |
| 20260902080702 | 79 | 254 | 2.0 | 3.0 | 0.00 | 0.00 | 0.00 | 74 | 101.4 |
| 20260902080202 | 79 | 212 | 0.0 | 4.0 | 0.00 | 0.00 | 0.00 | 74 | 101.3 |
| 20260902075702 | 79 | 333 | 0.0 | 2.0 | 0.00 | 0.00 | 0.00 | 74 | 101.3 |
| 20260902075202 | 79 | 117 | 0.0 | 0.0 | 0.00 | 0.00 | 0.00 | 74 | 101.3 |
| 20260902074702 | 79 | 180 | 0.0 | 0.0 | 0.00 | 0.00 | 0.00 | 74 | 101.3 |
| 20260902074202 | 79 | 135 | 0.0 | 0.0 | 0.00 | 0.00 | 0.00 | 74 | 101.3 |
| 20260902073702 | 79 | 217 | 0.0 | 0.0 | 0.00 | 0.00 | 0.00 | 73 | 101.3 |
| 20260902073202 | 79 | 217 | 0.0 | 1.0 | 0.00 | 0.00 | 0.00 | 72 | 101.4 |
| 20260902072202 | 80 | 246 | 0.0 | 0.0 | 0.00 | 0.00 | 0.00 | 72 | 101.4 |
| 20260902071702 | 80 | 129 | 0.0 | 0.0 | 0.00 | 0.00 | 0.00 | 72 | 101.4 |
| 20260902071201 | 80 | 230 | 0.0 | 1.0 | 0.00 | 0.00 | 0.00 | 71 | 101.4 |
| 20260902070702 | 80 | 147 | 0.0 | 0.0 | 0.00 | 0.00 | 0.00 | 71 | 101.4 |
| 20260902070202 | 80 | 315 | 0.0 | 0.0 | 0.00 | 0.00 | 0.00 | 70 | 101.3 |
| 20260902065702 | 81 | 269 | 0.0 | 0.0 | 0.00 | 0.00 | 0.00 | 70 | 101.3 |
| 20260902065202 | 81 | 224 | 0.0 | 0.0 | 0.00 | 0.00 | 0.00 | 70 | 101.3 |
| 20260902064702 | 81 | 195 | 0.0 | 0.0 | 0.00 | 0.00 | 0.00 | 69 | 101.3 |
| 20260902063701 | 82 | 246 | 0.0 | 0.0 | 0.00 | 0.00 | 0.00 | 70 | 101.3 |
| 20260902063202 | 82 | 246 | 0.0 | 0.0 | 0.00 | 0.00 | 0.00 | 69 | 101.4 |
| 20260902062702 | 82 | 224 | 0.0 | 1.0 | 0.00 | 0.00 | 0.00 | 69 | 101.4 |
| 20260902062202 | 82 | 224 | 0.0 | 0.0 | 0.00 | 0.00 | 0.00 | 68 | 101.4 |
| 20260902061702 | 82 | 224 | 0.0 | 1.0 | 0.00 | 0.00 | 0.00 | 68 | 101.4 |
| 20260902061201 | 83 | 214 | 2.0 | 2.0 | 0.00 | 0.00 | 0.00 | 67 | 101.4 |
| 20260902060703 | 83 | 174 | 0.0 | 2.0 | 0.00 | 0.00 | 0.00 | 67 | 101.4 |
| 20260902060202 | 83 | 212 | 0.0 | 2.0 | 0.00 | 0.00 | 0.00 | 67 | 101.3 |
| 20260902055702 | 83 | 194 | 0.0 | 2.0 | 0.00 | 0.00 | 0.00 | 66 | 101.3 |
| 20260902055202 | 83 | 191 | 0.0 | 4.0 | 0.00 | 0.00 | 0.00 | 66 | 101.3 |
| 20260902054702 | 84 | 209 | 0.0 | 2.0 | 0.00 | 0.00 | 0.00 | 65 | 101.3 |
| 20260902054202 | 84 | 190 | 2.0 | 3.0 | 0.00 | 0.00 | 0.00 | 65 | 101.3 |
| 20260902053702 | 84 | 185 | 0.0 | 3.0 | 0.00 | 0.00 | 0.00 | 65 | 101.3 |
| 20260902053202 | 84 | 203 | 2.0 | 4.0 | 0.00 | 0.00 | 0.00 | 64 | 101.3 |
| 20260902052702 | 84 | 230 | 2.0 | 4.0 | 0.00 | 0.00 | 0.00 | 64 | 101.3 |
| 20260902052202 | 84 | 155 | 0.0 | 3.0 | 0.00 | 0.00 | 0.00 | 64 | 101.3 |
| 20260902051702 | 84 | 210 | 1.0 | 2.0 | 0.00 | 0.00 | 0.00 | 63 | 101.4 |
| 20260902051202 | 85 | 196 | 4.0 | 5.0 | 0.00 | 0.00 | 0.00 | 63 | 101.4 |
| 20260902050702 | 85 | 202 | 2.0 | 4.0 | 0.00 | 0.00 | 0.00 | 62 | 101.4 |
| 20260902045702 | 85 | 195 | 2.0 | 7.0 | 0.00 | 0.00 | 0.00 | 61 | 101.3 |
| 20260902045202 | 85 | 198 | 6.0 | 6.0 | 0.00 | 0.00 | 0.00 | 60 | 101.3 |
| 20260902044701 | 86 | 137 | 0.0 | 7.0 | 0.00 | 0.00 | 0.00 | 60 | 101.3 |
| 20260902044201 | 85 | 171 | 3.0 | 6.0 | 0.00 | 0.00 | 0.00 | 60 | 101.3 |
| 20260902043703 | 85 | 169 | 0.0 | 4.0 | 0.00 | 0.00 | 0.00 | 59 | 101.3 |
| 20260902043202 | 86 | 195 | 1.0 | 3.0 | 0.00 | 0.00 | 0.00 | 59 | 101.3 |
| 20260902042702 | 86 | 213 | 1.0 | 2.0 | 0.00 | 0.00 | 0.00 | 58 | 101.3 |
| 20260902042202 | 86 | 245 | 0.0 | 6.0 | 0.00 | 0.00 | 0.00 | 58 | 101.3 |
| 20260902041703 | 86 | 240 | 2.0 | 4.0 | 0.00 | 0.00 | 0.00 | 58 | 101.3 |
| 20260902041202 | 86 | 155 | 0.0 | 2.0 | 0.00 | 0.00 | 0.00 | 58 | 101.3 |
| 20260902040702 | 86 | 207 | 0.0 | 4.0 | 0.00 | 0.00 | 0.00 | 58 | 101.3 |
| 20260902040202 | 86 | 181 | 0.0 | 5.0 | 0.00 | 0.00 | 0.00 | 57 | 101.3 |
| 20260902035702 | 86 | 196 | 1.0 | 3.0 | 0.00 | 0.00 | 0.00 | 57 | 101.3 |
| 20260902035203 | 86 | 233 | 1.0 | 3.0 | 0.00 | 0.00 | 0.00 | 57 | 101.3 |
| 20260902034202 | 87 | 237 | 1.0 | 3.0 | 0.00 | 0.00 | 0.00 | 56 | 101.3 |
| 20260902033702 | 87 | 156 | 1.0 | 5.0 | 0.00 | 0.00 | 0.00 | 56 | 101.3 |
| 20260902033203 | 87 | 139 | 0.0 | 4.0 | 0.00 | 0.00 | 0.00 | 57 | 101.3 |
| 20260902032202 | 87 | 209 | 0.0 | 3.0 | 0.00 | 0.00 | 0.00 | 56 | 101.3 |
| 20260902031702 | 87 | 187 | 2.0 | 4.0 | 0.00 | 0.00 | 0.00 | 56 | 101.3 |
| 20260902030202 | 88 | 182 | 0.0 | 3.0 | 0.00 | 0.00 | 0.00 | 55 | 101.2 |
| 20260902025702 | 88 | 169 | 0.0 | 4.0 | 0.00 | 0.00 | 0.00 | 54 | 101.2 |
| 20260902024702 | 88 | 197 | 1.0 | 4.0 | 0.00 | 0.00 | 0.00 | 54 | 101.2 |
| 20260902024202 | 88 | 200 | 2.0 | 5.0 | 0.00 | 0.00 | 0.00 | 53 | 101.2 |
| 20260902023702 | 88 | 192 | 2.0 | 7.0 | 0.00 | 0.00 | 0.00 | 53 | 101.2 |
| 20260902023201 | 88 | 195 | 3.0 | 5.0 | 0.00 | 0.00 | 0.00 | 52 | 101.2 |
| 20260902022702 | 88 | 224 | 0.0 | 3.0 | 0.00 | 0.00 | 0.00 | 52 | 101.2 |
| 20260902022203 | 88 | 324 | 0.0 | 4.0 | 0.00 | 0.00 | 0.00 | 51 | 101.2 |
| 20260902021702 | 88 | 72 | 0.0 | 3.0 | 0.00 | 0.00 | 0.00 | 51 | 101.2 |
| 20260902020702 | 89 | 242 | 0.0 | 2.0 | 0.00 | 0.00 | 0.00 | 50 | 101.2 |
| 20260902020202 | 89 | 135 | 0.0 | 1.0 | 0.00 | 0.00 | 0.00 | 49 | 101.1 |
| 20260902015202 | 90 | 230 | 0.0 | 1.0 | 0.00 | 0.00 | 0.00 | 48 | 101.1 |
| 20260902014702 | 90 | 154 | 0.0 | 1.0 | 0.00 | 0.00 | 0.00 | 48 | 101.1 |
| 20260902014202 | 90 | 217 | 0.0 | 1.0 | 0.00 | 0.00 | 0.00 | 47 | 101.1 |
| 20260902013702 | 90 | 222 | 2.0 | 3.0 | 0.00 | 0.00 | 0.00 | 47 | 101.1 |
| 20260902012202 | 91 | 139 | 0.0 | 1.0 | 0.00 | 0.00 | 0.00 | 44 | 101.1 |
| 20260902011702 | 91 | 202 | 0.0 | 1.0 | 0.00 | 0.00 | 0.00 | 44 | 101.1 |
| 20260902010202 | 92 | 222 | 0.0 | 2.0 | 0.00 | 0.00 | 0.00 | 43 | 101.1 |
| 20260902005701 | 92 | 143 | 1.0 | 1.0 | 0.00 | 0.00 | 0.00 | 43 | 101.1 |
| 20260902004702 | 92 | 143 | 1.0 | 2.0 | 0.00 | 0.00 | 0.00 | 43 | 101.1 |
| 20260902003702 | 93 | 116 | 0.0 | 2.0 | 0.00 | 0.00 | 0.00 | 42 | 101.1 |